Location: Izdebno
(52.6670°N, 16.2170°E)
Time: 23:59:01
(UTC+02:00)

Vanguard 2 Rocket - Pass Details

Date: 02 March 2024
Orbit: 555 x 3307 km, 32.9° (Epoch: 21 April)

Event Time Altitude Azimuth Distance (km) Brightness Sun altitude
Rises 17:17:59 0° 256° (WSW) 4,840 14.8 1.9°
Reaches altitude 10° 17:21:50 10° 241° (WSW) 4,274 12.1 1.4°
Maximum altitude 17:30:12 22° 198° (SSW) 4,182 10.7 0.1°
Drops below altitude 10° 17:41:20 10° 158° (SSE) 5,846 10.9 -1.5°
Sets 17:48:05 0° 146° (SE) 7,148 11.2 -2.6°
